Location: Sevilla
(37.3933°N, 5.9839°W)
Time: 04:49:15
(UTC+02:00)

Transit 2A - Pass Details

Date: 01 July 2024
Orbit: 591 x 960 km, 66.7° (Epoch: 15 July)

Event Time Altitude Azimuth Distance (km) Brightness Sun altitude
Rises 22:27:53 0° 346° (NNW) 3,556 10.3 -7.3°
Reaches altitude 10° 22:31:33 10° 8° (N) 2,657 9.2 -7.9°
Maximum altitude 22:35:11 16° 43° (NE) 2,293 8.4 -8.5°
Drops below altitude 10° 22:38:51 10° 79° (E) 2,692 8.4 -9.1°
Enters shadow 22:40:57 - 93° (E) 3,180 8.7 -9.4°
Sets 22:42:36 0° 100° (E) 3,629 - -9.6°
